GW1014 Weather Reports


time (UTC)temp
C
wind
direction
speed
KPH
gust
KPH
rain 1hr
cm
rain 24hr
cm
rain mn
cm
humidity
%
barometer
mb
20260504193535 25 338 0.0 4.8 0.00 0.00 0.00 37 1014.2
20260504193033 25 151 0.0 1.6 0.00 0.00 0.00 39 1014.2
20260504192531 25 283 0.0 0.0 0.00 0.00 0.00 38 1014.6
20260504192029 26 260 0.0 1.6 0.00 0.00 0.00 37 1014.6
20260504191527 25 341 0.0 1.6 0.00 0.00 0.00 36 1014.6
20260504191023 25 239 0.0 0.0 0.00 0.00 0.00 41 1014.7
20260504190519 25 270 0.0 4.8 0.00 0.00 0.00 39 1014.8
20260504190015 25 219 0.0 0.0 0.00 0.00 0.00 40 1014.8
20260504185512 25 221 0.0 0.0 0.00 0.00 0.00 42 1015.0
20260504185009 25 216 0.0 0.0 0.00 0.00 0.00 38 1014.9
20260504184509 25 350 0.0 6.4 0.00 0.00 0.00 36 1015.0
20260504184005 24 268 0.0 0.0 0.00 0.00 0.00 37 1014.9
20260504183503 25 223 3.2 4.8 0.00 0.00 0.00 36 1015.0
20260504183000 24 250 6.4 9.7 0.00 0.00 0.00 38 1015.0
20260504182457 23 321 1.6 4.8 0.00 0.00 0.00 38 1015.1
20260504181955 24 243 9.7 11.3 0.00 0.00 0.00 37 1015.0
20260504181451 24 264 0.0 0.0 0.00 0.00 0.00 37 1015.2
20260504180950 23 50 0.0 0.0 0.00 0.00 0.00 37 1015.2
20260504180449 25 148 0.0 1.6 0.00 0.00 0.00 38 1015.3
20260504175947 24 249 0.0 1.6 0.00 0.00 0.00 38 1015.3
20260504175443 23 259 0.0 3.2 0.00 0.00 0.00 38 1015.2
20260504174941 23 338 3.2 9.7 0.00 0.00 0.00 38 1015.3
20260504174438 23 273 0.0 6.4 0.00 0.00 0.00 37 1015.5
20260504173936 23 244 3.2 11.3 0.00 0.00 0.00 38 1015.3
20260504173431 22 121 0.0 3.2 0.00 0.00 0.00 38 1015.3
20260504172930 23 254 0.0 6.4 0.00 0.00 0.00 36 1015.5
20260504172425 22 252 8.0 11.3 0.00 0.00 0.00 38 1015.6
20260504171922 23 267 0.0 9.7 0.00 0.00 0.00 40 1015.7
20260504171419 23 295 0.0 11.3 0.00 0.00 0.00 39 1015.7
20260504170916 22 243 0.0 0.0 0.00 0.00 0.00 40 1015.7
20260504170412 22 230 0.0 3.2 0.00 0.00 0.00 41 1015.8
20260504160331 20 336 3.2 4.8 0.00 0.00 0.00 39 1016.9
20260504150756 19 302 0.0 0.0 0.00 0.00 0.00 42 1017.4
20260504150253 18 351 0.0 0.0 0.00 0.00 0.00 43 1017.3
20260504141223 17 283 0.0 3.2 0.00 0.00 0.00 57 1017.1
20260504140719 16 256 0.0 0.0 0.00 0.00 0.00 61 1016.9
20260504140214 16 253 0.0 0.0 0.00 0.00 0.00 61 1017.2
20260504130643 13 337 0.0 0.0 0.00 0.00 0.00 73 1017.4
20260504130139 13 337 0.0 0.0 0.00 0.00 0.00 75 1017.3
20260504120104 6 338 0.0 0.0 0.00 0.00 0.00 99 1017.3
20260504110531 4 338 0.0 0.0 0.00 0.00 0.00 99 1017.2
20260504100453 3 338 0.0 0.0 0.00 0.00 0.00 99 1017.2
20260504081846 4 338 0.0 0.0 0.00 0.00 0.00 97 1017.0
20260504081343 4 338 0.0 0.0 0.00 0.00 0.00 97 1017.0
20260504080839 5 338 0.0 0.0 0.00 0.00 0.00 97 1017.0
20260504080336 5 338 0.0 0.0 0.00 0.00 0.00 97 1017.1
20260504070303 5 338 0.0 0.0 0.00 0.00 0.00 93 1016.8
20260504060224 5 338 0.0 0.0 0.00 0.00 0.00 91 1017.1
20260504050651 5 338 0.0 0.0 0.00 0.00 0.00 90 1017.3
20260504050148 5 338 0.0 0.0 0.00 0.00 0.00 90 1017.4
20260504045646 5 338 0.0 0.0 0.00 0.00 0.00 90 1017.3
20260504045146 6 338 0.0 0.0 0.00 0.00 0.00 89 1017.2
20260504044644 6 338 0.0 0.0 0.00 0.00 0.00 89 1017.2
20260504044140 6 338 0.0 0.0 0.00 0.00 0.00 89 1017.3
20260504043637 6 338 0.0 0.0 0.00 0.00 0.00 89 1017.2
20260504043135 6 338 0.0 0.0 0.00 0.00 0.00 89 1017.0
20260504042632 6 338 0.0 0.0 0.00 0.00 0.00 89 1017.1
20260504042128 6 338 0.0 0.0 0.00 0.00 0.00 89 1017.1
20260504041624 6 338 0.0 0.0 0.00 0.00 0.00 88 1017.2
20260504041121 6 338 0.0 0.0 0.00 0.00 0.00 88 1017.1
20260504040618 6 338 0.0 0.0 0.00 0.00 0.00 87 1017.1
20260504040115 6 338 0.0 0.0 0.00 0.00 0.00 87 1017.2
20260504035612 6 338 0.0 0.0 0.00 0.00 0.00 87 1017.1
20260504035108 6 338 0.0 0.0 0.00 0.00 0.00 87 1017.0
20260504034606 6 338 0.0 0.0 0.00 0.00 0.00 87 1017.1
20260504034102 6 338 0.0 0.0 0.00 0.00 0.00 86 1017.3
20260504033600 6 338 0.0 0.0 0.00 0.00 0.00 85 1017.3
20260504033057 6 338 0.0 0.0 0.00 0.00 0.00 86 1017.2
20260504032554 6 338 0.0 0.0 0.00 0.00 0.00 85 1017.1
20260504032051 6 338 0.0 0.0 0.00 0.00 0.00 86 1016.9
20260504031548 6 338 0.0 0.0 0.00 0.00 0.00 85 1017.1
20260504031044 6 338 0.0 0.0 0.00 0.00 0.00 85 1017.1
20260504030542 6 338 0.0 0.0 0.00 0.00 0.00 83 1017.3
20260504030037 6 338 0.0 0.0 0.00 0.00 0.00 83 1017.3
20260504025535 7 338 0.0 0.0 0.00 0.00 0.00 82 1017.2
20260504025031 7 338 0.0 0.0 0.00 0.00 0.00 81 1017.1
20260504024529 7 338 0.0 0.0 0.00 0.00 0.00 80 1017.0
20260504024025 7 338 0.0 0.0 0.00 0.00 0.00 80 1016.9
20260504023522 7 338 0.0 0.0 0.00 0.00 0.00 79 1017.2
20260504023018 7 338 0.0 0.0 0.00 0.00 0.00 78 1016.9
20260504022514 7 338 0.0 0.0 0.00 0.00 0.00 78 1016.7
20260504022011 7 338 0.0 0.0 0.00 0.00 0.00 78 1017.0
20260504021509 7 338 0.0 0.0 0.00 0.00 0.00 76 1016.8
20260504021005 7 338 0.0 0.0 0.00 0.00 0.00 77 1016.8
20260504020502 7 338 0.0 0.0 0.00 0.00 0.00 77 1016.6
20260504015958 7 338 0.0 0.0 0.00 0.00 0.00 76 1016.6
20260504015454 8 338 0.0 0.0 0.00 0.00 0.00 74 1016.5
20260504014950 8 338 0.0 0.0 0.00 0.00 0.00 74 1016.6
20260504014447 8 338 0.0 0.0 0.00 0.00 0.00 73 1016.3
20260504013944 8 338 0.0 0.0 0.00 0.00 0.00 72
20260504013442 8 338 0.0 0.0 0.00 0.00 0.00 72
20260504012938 8 338 0.0 0.0 0.00 0.00 0.00 71 1016.3
20260504012436 8 338 0.0 0.0 0.00 0.00 0.00 69 1016.3
20260504011934 9 338 0.0 0.0 0.00 0.00 0.00 68 1016.5
20260504011430 9 338 0.0 0.0 0.00 0.00 0.00 66 1016.2
20260504010926 9 338 0.0 0.0 0.00 0.00 0.00 65 1016.4
20260504010422 10 338 0.0 0.0 0.00 0.00 0.00 64 1016.4
20260504005918 10 338 0.0 0.0 0.00 0.00 0.00 63 1016.4
20260504005415 10 338 0.0 0.0 0.00 0.00 0.00 60 1016.1
20260504004913 10 338 0.0 0.0 0.00 0.00 0.00 60 1016.4
20260504004410 10 338 0.0 0.0 0.00 0.00 0.00 57 1016.2
20260504003907 11 338 0.0 0.0 0.00 0.00 0.00 57 1016.1
20260504003403 11 338 0.0 0.0 0.00 0.00 0.00 57 1016.0
20260504002900 12 338 0.0 0.0 0.00 0.00 0.00 54 1016.1
20260504002357 12 338 0.0 0.0 0.00 0.00 0.00 53 1015.9
20260504001855 12 337 0.0 0.0 0.00 0.00 0.00 53
20260504001352 12 337 0.0 0.0 0.00 0.00 0.00 50 1015.7
20260504000848 13 337 0.0 0.0 0.00 0.00 0.00 47 1015.7
20260504000346 13 337 0.0 0.0 0.00 0.00 0.00 48 1015.8
20260503235843 14 337 0.0 0.0 0.00 0.00 0.00 45 1015.8
20260503235341 15 337 0.0 0.0 0.00 0.00 0.00 43 1015.9
20260503234838 15 336 0.0 0.0 0.00 0.00 0.00 42 1015.9
20260503234336 15 335 0.0 0.0 0.00 0.00 0.00 40 1015.9
20260503233833 16 277 0.0 0.0 0.00 0.00 0.00 38 1015.9
20260503233329 16 270 0.0 0.0 0.00 0.00 0.00 37 1016.0
20260503232825 16 259 0.0 0.0 0.00 0.00 0.00 37 1015.8
20260503232323 16 259 0.0 0.0 0.00 0.00 0.00 36 1015.7
20260503231821 16 301 0.0 0.0 0.00 0.00 0.00 34 1015.7
20260503231318 17 301 0.0 0.0 0.00 0.00 0.00 34 1015.8
20260503230813 17 304 0.0 0.0 0.00 0.00 0.00 35 1015.7
20260503230311 17 308 0.0 0.0 0.00 0.00 0.00 35 1016.0
20260503225808 17 308 0.0 0.0 0.00 0.00 0.00 31 1015.9
20260503225304 17 313 0.0 0.0 0.00 0.00 0.00 35 1015.9
20260503224800 17 271 0.0 0.0 0.00 0.00 0.00 33 1015.9
20260503224258 17 302 0.0 0.0 0.00 0.00 0.00 30 1016.0
20260503223755 17 273 0.0 0.0 0.00 0.00 0.00 30
20260503223253 17 357 0.0 0.0 0.00 0.00 0.00 32
20260503222749 18 262 1.6 3.2 0.00 0.00 0.00 29 1016.2
20260503222247 18 264 0.0 0.0 0.00 0.00 0.00 29 1016.2
20260503221745 18 307 0.0 6.4 0.00 0.00 0.00 28
20260503221243 18 312 0.0 0.0 0.00 0.00 0.00 30
20260503220739 18 269 0.0 1.6 0.00 0.00 0.00 28
20260503220236 18 270 0.0 0.0 0.00 0.00 0.00 31
20260503215732 18 304 0.0 3.2 0.00 0.00 0.00 28
20260503215230 18 259 0.0 0.0 0.00 0.00 0.00 29 1016.4
20260503214728 18 244 0.0 0.0 0.00 0.00 0.00 28 1016.4
20260503214224 18 331 0.0 3.2 0.00 0.00 0.00 30 1016.6
20260503213722 18 303 0.0 0.0 0.00 0.00 0.00 28 1016.5
20260503213219 18 281 0.0 4.8 0.00 0.00 0.00 27 1016.5
20260503212716 18 13 0.0 1.6 0.00 0.00 0.00 30 1016.7
20260503212214 18 231 8.0 11.3 0.00 0.00 0.00 27 1016.7
20260503211711 18 279 1.6 6.4 0.00 0.00 0.00 28 1016.7
20260503211207 18 248 8.0 9.7 0.00 0.00 0.00 29
20260503210703 18 316 0.0 3.2 0.00 0.00 0.00 30 1016.6
20260503210200 18 275 1.6 9.7 0.00 0.00 0.00 30 1016.6
20260503205655 18 134 1.6 3.2 0.00 0.00 0.00 30 1016.8
20260503205152 18 288 0.0 4.8 0.00 0.00 0.00 27 1016.7
20260503204649 18 280 0.0 4.8 0.00 0.00 0.00 28 1016.5
20260503204146 18 275 1.6 6.4 0.00 0.00 0.00 27 1016.8
20260503203643 18 296 1.6 9.7 0.00 0.00 0.00 28 1016.9
20260503203141 18 259 9.7 12.9 0.00 0.00 0.00 27 1016.9
20260503202638 18 261 1.6 6.4 0.00 0.00 0.00 29 1016.9
20260503202136 18 265 1.6 4.8 0.00 0.00 0.00 29 1017.1
20260503201634 18 336 0.0 6.4 0.00 0.00 0.00 29 1017.2
20260503201131 18 269 4.8 4.8 0.00 0.00 0.00 27 1017.3
20260503200627 17 274 0.0 3.2 0.00 0.00 0.00 29 1017.4
20260503200124 17 5 0.0 4.8 0.00 0.00 0.00 30 1017.4
20260503195621 18 50 0.0 3.2 0.00 0.00 0.00 28 1017.6
20260503195118 17 342 1.6 3.2 0.00 0.00 0.00 31 1017.5
20260503194615 18 199 3.2 6.4 0.00 0.00 0.00 27 1017.7
20260503194109 18 316 0.0 3.2 0.00 0.00 0.00 32 1017.5